Teterboro, NJ

10:12 AM EDT on April 29, 2017 (GMT -0400)
Teterboro

Weather History for KTEB - January, 2013

Change the Weather History Date:

Monday, January 28, 2013

  Actual Average Record
Temperature  
Mean Temperature 29 °F -  
Max Temperature 35 °F 36 °F 62 °F (2002)
Min Temperature 23 °F 22 °F 5 °F (2005)
Degree Days  
Heating Degree Days 36    
Moisture  
Dew Point 27 °F    
Average Humidity 84    
Maximum Humidity 100    
Minimum Humidity 56    
Precipitation  
Precipitation 0.22 in - - ()
Sea Level Pressure  
Sea Level Pressure 30.25 in    
Wind  
Wind Speed 4 mph (South)    
Max Wind Speed 13 mph    
Max Gust Speed 21 mph    
Visibility 4 miles    
Events Fog , Rain , Snow    
Averages and records for this station are not official NWS values.
T = Trace of Precipitation, MM = Missing Value Source: NWS Daily Summary

Daily Weather History Graph

Daily Weather History Graph

Search for Another Location

Airport or City:

Trip Planner

Search our weather history database for the weather conditions in past years. The results will help you decide how hot, cold, wet, or windy it might be!

Date:

Astronomy

Jan. 28, 2013 Rise Set
Actual Time 7:09 AM EST 5:09 PM EST
Civil Twilight 6:40 AM EST 5:38 PM EST
Nautical Twilight 6:07 AM EST 6:11 PM EST
Astronomical Twilight 5:35 AM EST 6:43 PM EST
Moon 7:02 PM EST (1/28) 7:33 AM EST (1/28)
Length of Visible Light 10h 57m
Length of Day
9h 59m
Full, 98% of the Moon is Illuminated
Jan 28
Full
Feb 3
Last Quarter
Feb 10
New
Feb 17
First Quarter
Feb 25
Full

Hourly Weather History & Observations

Time (EST) Temp. Windchill Dew Point Humidity Pressure Visibility Wind Dir Wind Speed Gust Speed Precip Events Conditions
12:51 AM 23.0 °F - 14.0 °F 68% 30.49 in 10.0 mi Calm Calm - N/A   Clear
1:51 AM 24.1 °F - 15.1 °F 69% 30.48 in 10.0 mi Calm Calm - N/A   Clear
2:51 AM 25.0 °F - 12.9 °F 60% 30.45 in 10.0 mi Calm Calm - N/A   Clear
3:51 AM 24.1 °F - 17.1 °F 75% 30.45 in 10.0 mi Calm Calm - N/A   Scattered Clouds
4:51 AM 27.0 °F - 17.1 °F 66% 30.43 in 10.0 mi Calm Calm - N/A   Overcast
5:51 AM 28.0 °F - 17.1 °F 63% 30.41 in 10.0 mi Calm Calm - N/A   Overcast
6:51 AM 28.0 °F 24.2 °F 18.0 °F 66% 30.41 in 10.0 mi South 3.5 mph - N/A   Overcast
7:51 AM 28.9 °F - 18.0 °F 64% 30.40 in 10.0 mi Calm Calm - N/A   Overcast
8:51 AM 33.1 °F 27.7 °F 19.0 °F 56% 30.39 in 9.0 mi Variable 5.8 mph 20.7 mph 0.00 in   Overcast
9:12 AM 30.2 °F 23.4 °F 19.4 °F 64% 30.39 in 2.0 mi SSW 6.9 mph - 0.00 in Snow Light Snow
9:19 AM 30.2 °F 24.3 °F 21.2 °F 69% 30.39 in 1.0 mi SSW 5.8 mph - 0.00 in Snow Light Snow
9:27 AM 30.2 °F 23.4 °F 24.8 °F 80% 30.39 in 0.8 mi SSW 6.9 mph - 0.00 in Snow Light Snow
9:51 AM 28.9 °F 23.9 °F 26.1 °F 89% 30.38 in 0.5 mi SSW 4.6 mph - 0.01 in Fog , Snow Snow
10:15 AM 28.4 °F 22.2 °F 26.6 °F 93% 30.36 in 0.8 mi South 5.8 mph - 0.02 in Snow Snow
10:32 AM 30.2 °F 23.4 °F 26.6 °F 86% 30.35 in 2.0 mi South 6.9 mph - 0.02 in Snow Light Snow
10:46 AM 30.2 °F 23.4 °F 28.4 °F 93% 30.34 in 2.5 mi South 6.9 mph - 0.02 in Snow Light Snow
10:48 AM 30.2 °F 23.4 °F 28.4 °F 93% 30.34 in 2.5 mi South 6.9 mph - 0.02 in Snow Light Snow
10:51 AM 30.9 °F 24.3 °F 28.0 °F 89% 30.34 in 2.5 mi South 6.9 mph - 0.02 in Snow Light Snow
11:46 AM 32.0 °F 24.2 °F 28.4 °F 87% 30.30 in 2.5 mi South 9.2 mph - N/A Snow Light Snow
11:51 AM 32.0 °F 23.0 °F 28.9 °F 88% 30.29 in 2.5 mi South 11.5 mph - 0.00 in Snow Light Snow
11:58 AM 32.0 °F 24.2 °F 28.4 °F 87% 30.28 in 3.0 mi South 9.2 mph - 0.00 in Snow Light Snow
12:05 PM 32.0 °F 23.6 °F 28.4 °F 87% 30.27 in 2.5 mi South 10.4 mph - 0.00 in   Ice Pellets
12:51 PM 32.0 °F 22.5 °F 30.0 °F 92% 30.23 in 2.5 mi South 12.7 mph - 0.03 in Rain Ice Pellets
1:51 PM 33.1 °F 26.1 °F 30.9 °F 92% 30.17 in 2.5 mi South 8.1 mph - 0.00 in Rain Light Rain
2:51 PM 33.1 °F 25.5 °F 30.9 °F 92% 30.12 in 2.0 mi South 9.2 mph - 0.03 in Rain Light Rain
3:02 PM 33.8 °F 27.0 °F 30.2 °F 87% 30.12 in 2.0 mi South 8.1 mph - 0.01 in Rain Light Rain
3:51 PM 33.1 °F 26.9 °F 32.0 °F 96% 30.10 in 2.0 mi South 6.9 mph - 0.06 in Rain Light Rain
4:51 PM 33.1 °F 26.9 °F 32.0 °F 96% 30.08 in 2.0 mi SSW 6.9 mph - 0.03 in Rain Light Rain
4:58 PM 35.6 °F 29.9 °F 33.8 °F 93% 30.08 in 3.0 mi SSW 6.9 mph - 0.00 in   Overcast
5:51 PM 34.0 °F 28.8 °F 32.0 °F 92% 30.06 in 3.0 mi South 5.8 mph - 0.00 in   Overcast
6:46 PM 33.8 °F 29.6 °F 32.0 °F 93% 30.06 in 4.0 mi SSW 4.6 mph - 0.02 in Rain Light Rain
6:51 PM 34.0 °F 28.8 °F 33.1 °F 96% 30.06 in 4.0 mi SSW 5.8 mph - 0.02 in Rain Light Rain
7:51 PM 34.0 °F 29.8 °F 33.1 °F 96% 30.04 in 4.0 mi South 4.6 mph - 0.02 in   Overcast
8:51 PM 34.0 °F 28.8 °F 33.1 °F 96% 30.03 in 4.0 mi South 5.8 mph - 0.00 in   Overcast
9:51 PM 34.0 °F 29.8 °F 33.1 °F 96% 30.01 in 4.0 mi SSW 4.6 mph - N/A   Overcast
10:41 PM 33.8 °F 30.8 °F 33.8 °F 100% 30.01 in 4.0 mi South 3.5 mph - N/A   Overcast
10:51 PM 34.0 °F 31.0 °F 33.1 °F 96% 30.01 in 4.0 mi South 3.5 mph - N/A   Overcast
11:51 PM 35.1 °F 31.0 °F 33.1 °F 92% 30.01 in 4.0 mi SSW 4.6 mph - N/A   Overcast